Location: Unspecified
(0.0000°N, 0.0000°E)
Time: 21:08:14
(UTC+02:00)

ARIANE 5 R/B - Visible Passes

Search period start: 24 June 2017 00:00
Search period end: 04 July 2017 00:00
Orbit: 594 x 35532 km, 4.9° (Epoch: 23 June)

Date Brightness Start Highest point End Pass type
(mag) Time Alt. Az. Time Alt. Az. Time Alt. Az.
24 Jun 10.2 02:00:16 10° E 07:35:51 44° E 09:17:31 10° E visible
24 Jun 2.5 20:31:02 10° W 20:34:42 73° S 20:39:15 10° E visible
26 Jun 6.9 04:47:03 33° W 06:34:02 83° NW 14:36:41 10° E visible
27 Jun 7.4 01:54:50 68° ENE 01:54:50 68° ENE 11:32:18 10° E visible
27 Jun 3.9 22:34:12 10° W 23:02:39 - E 22:37:52 71° WNW visible
28 Jun 10.8 02:55:26 10° E 06:37:18 31° E 08:08:45 10° E visible
29 Jun 5.6 06:52:02 10° W 08:36:06 47° W 16:39:14 10° E visible
30 Jun 7.4 03:52:08 53° WNW 04:25:04 83° N 13:38:21 10° E visible
01 Jul 6.8 00:59:57 47° ENE 00:59:57 47° ENE 10:31:26 10° E visible
01 Jul 3.2 21:36:19 10° W 21:39:57 84° N 21:43:32 30° E visible
02 Jul 11.2 03:40:00 10° E 05:39:44 18° E 06:48:40 10° E visible
03 Jul 6.1 05:49:29 12° W 07:36:43 61° W 15:41:25 10° E visible
